EA1L-13 Weather Reports


time (UTC)temp
C
wind
direction
speed
KPH
gust
KPH
rain 1hr
cm
rain 24hr
cm
rain mn
cm
humidity
%
barometer
mb
20260507100004 15 296 3.2 8.0 0.00 0.08 0.00 100 1008.8
20260507094504 15 5 1.6 11.3 0.00 0.08 0.00 100 1008.8
20260507093005 15 314 3.2 9.7 0.00 0.08 0.00 100 1008.9
20260507091504 14 295 0.0 4.8 0.00 0.08 0.00 100 1009.0
20260507090005 13 315 3.2 4.8 0.00 0.08 0.00 100 1008.8
20260507084504 14 305 1.6 4.8 0.00 0.08 0.00 100 1008.9
20260507083005 13 250 0.0 4.8 0.00 0.08 0.00 100 1009.1
20260507081504 13 206 0.0 0.0 0.00 0.08 0.00 100 1009.1
20260507080004 12 205 0.0 0.0 0.00 0.08 0.00 100 1009.3
20260507074504 11 211 0.0 0.0 0.00 0.08 0.00 100 1009.4
20260507073004 11 211 0.0 0.0 0.00 0.08 0.00 100 1009.5
20260507071504 11 211 0.0 0.0 0.00 0.08 0.00 100 1009.5
20260507070009 10 211 0.0 0.0 0.00 0.08 0.00 100 1009.6
20260507064504 10 211 0.0 0.0 0.00 0.08 0.00 100 1009.5
20260507063005 10 211 0.0 0.0 0.00 0.08 0.00 100 1009.5
20260507061504 10 211 0.0 0.0 0.00 0.08 0.00 100 1009.4
20260507060004 9 211 0.0 0.0 0.00 0.10 0.00 100 1009.4
20260507054504 9 244 0.0 0.0 0.00 0.10 0.00 100 1009.4
20260507053005 9 277 0.0 0.0 0.00 0.10 0.00 100 1009.3
20260507051504 8 355 0.0 0.0 0.00 0.10 0.00 100 1009.3
20260507050006 8 355 0.0 0.0 0.00 0.10 0.00 100 1009.4
20260507044504 8 355 0.0 0.0 0.00 0.10 0.00 100 1009.3
20260507043005 8 355 0.0 0.0 0.00 0.10 0.00 100 1009.5
20260507041504 8 355 0.0 0.0 0.00 0.10 0.00 100 1009.5
20260507040004 8 355 0.0 0.0 0.00 0.10 0.00 100 1009.5
20260507034504 8 355 0.0 0.0 0.00 0.10 0.00 100 1009.7
20260507033004 8 355 0.0 0.0 0.00 0.10 0.00 100 1009.8
20260507031504 9 355 0.0 0.0 0.00 0.10 0.00 100 1009.8
20260507030004 9 355 0.0 0.0 0.00 0.10 0.00 100 1009.9
20260507024504 9 355 0.0 0.0 0.00 0.10 0.00 100 1009.9
20260507023005 9 355 0.0 0.0 0.00 0.10 0.00 100 1009.9
20260507021504 9 266 0.0 1.6 0.00 0.10 0.00 100 1010.0
20260507020004 9 355 0.0 0.0 0.00 0.10 0.00 100 1010.1
20260507014504 10 355 0.0 4.8 0.00 0.10 0.00 100 1010.0
20260507013005 10 306 0.0 4.8 0.00 0.10 0.00 100 1010.4
20260507011504 10 302 0.0 0.0 0.00 0.10 0.00 100 1010.6
20260507010004 10 302 0.0 0.0 0.00 0.10 0.00 100 1010.7
20260507004504 10 302 0.0 0.0 0.00 0.10 0.00 100 1010.8
20260507003004 10 302 0.0 0.0 0.00 0.10 0.00 100 1010.9
20260507001504 10 302 0.0 0.0 0.00 0.10 0.00 100 1010.9
20260507000004 10 302 0.0 0.0 0.00 0.10 0.00 100 1011.0
20260506234504 10 302 0.0 0.0 0.00 0.10 0.00 100 1011.2
20260506233005 11 302 0.0 0.0 0.00 0.10 0.00 100 1011.4
20260506231505 11 302 0.0 0.0 0.00 0.10 0.00 100 1011.5
20260506230005 11 302 0.0 0.0 0.00 0.10 0.00 99 1011.6
20260506224504 11 302 0.0 0.0 0.00 0.10 0.00 98 1011.5
20260506223005 11 302 0.0 0.0 0.00 0.10 0.00 98 1011.7
20260506221504 11 302 0.0 0.0 0.00 0.10 0.00 97 1011.9
20260506220004 11 302 0.0 0.0 0.00 0.10 0.00 96 1012.0
20260506214504 11 302 0.0 0.0 0.00 0.10 0.10 95 1012.0
20260506213005 11 302 0.0 0.0 0.00 0.10 0.10 93 1012.0
20260506211504 11 302 0.0 0.0 0.00 0.10 0.10 92 1011.9
20260506210004 11 302 0.0 0.0 0.00 0.10 0.10 91 1012.0
20260506204504 11 61 0.0 0.0 0.00 0.10 0.10 90 1012.0
20260506203004 11 61 0.0 0.0 0.00 0.10 0.10 89 1012.0
20260506201504 11 61 0.0 8.0 0.00 0.10 0.10 88 1011.9
20260506200005 11 75 1.6 8.0 0.00 0.10 0.10 88 1011.8
20260506194504 11 79 3.2 8.0 0.00 0.10 0.10 88 1011.7
20260506193004 11 74 1.6 11.3 0.00 0.10 0.10 86 1011.7
20260506191504 11 87 3.2 16.1 0.00 0.10 0.10 83 1011.5
20260506190005 11 30 4.8 11.3 0.00 0.10 0.10 81 1011.5
20260506184504 12 32 4.8 12.9 0.00 0.10 0.10 81 1011.4
20260506183005 12 351 4.8 16.1 0.00 0.10 0.10 80 1011.3
20260506181504 12 37 9.7 19.3 0.00 0.10 0.10 77 1011.4
20260506180005 12 42 9.7 16.1 0.00 0.10 0.10 74 1011.4
20260506174504 12 30 6.4 19.3 0.00 0.10 0.10 73 1011.4
20260506173005 12 2 9.7 19.3 0.00 0.10 0.10 72 1011.3
20260506171504 12 33 11.3 19.3 0.00 0.10 0.10 70 1011.3
20260506170004 12 52 8.0 19.3 0.00 0.10 0.10 70 1011.3
20260506164504 12 66 8.0 20.9 0.00 0.10 0.10 69 1011.2
20260506163004 12 79 9.7 19.3 0.00 0.13 0.10 70 1011.3
20260506161504 12 87 4.8 19.3 0.00 0.13 0.10 70 1011.1
20260506160004 12 79 8.0 19.3 0.00 0.13 0.10 71 1011.1
20260506154504 13 358 8.0 20.9 0.00 0.13 0.10 71 1011.1
20260506153005 13 55 9.7 19.3 0.00 0.13 0.10 72 1011.3
20260506151504 13 53 9.7 19.3 0.00 0.15 0.10 75 1011.4
20260506150004 13 55 8.0 16.1 0.00 0.15 0.10 81 1011.5
20260506144504 13 35 3.2 12.9 0.03 0.15 0.10 84 1011.6
20260506143005 13 355 4.8 12.9 0.08 0.30 0.10 86 1011.7
20260506141504 12 343 3.2 8.0 0.08 0.30 0.10 85 1011.9
20260506140005 12 39 3.2 14.5 0.08 0.30 0.10 77 1012.1
20260506134504 12 301 3.2 9.7 0.05 0.41 0.08 76 1012.3
20260506133005 13 242 4.8 9.7 0.00 0.36 0.03 72 1012.4
20260506131504 13 259 6.4 11.3 0.00 0.38 0.03 69 1012.5
20260506130005 13 0 3.2 8.0 0.00 0.38 0.03 67 1012.4
20260506124504 13 21 3.2 9.7 0.00 0.38 0.03 69 1012.6
20260506123005 13 351 4.8 14.5 0.00 0.38 0.03 69 1012.6
20260506121504 13 354 8.0 19.3 0.00 0.38 0.03 65 1012.5
20260506120005 13 34 8.0 12.9 0.00 0.38 0.03 60 1012.4
20260506114504 15 301 3.2 11.3 0.00 0.38 0.03 60 1012.6
20260506113005 14 182 3.2 8.0 0.00 0.38 0.03 62 1012.7
20260506111504 13 61 3.2 9.7 0.00 0.38 0.03 65 1012.8
20260506110004 13 315 4.8 11.3 0.00 0.38 0.03 71 1012.8
20260506104504 13 320 3.2 12.9 0.00 0.38 0.03 79 1012.9
20260506103004 13 22 4.8 12.9 0.00 0.41 0.03 99 1012.9
20260506101504 13 14 8.0 12.9 0.00 0.41 0.03 100 1012.9